This is the latest recevied weather packets stored in our database for station/object S59MA-6. If no packets are shown the sender has not sent any weather packets the latest 1 day(s).
| Time | Temp. | Humidity | Pressure | Rain* | Wind** | Luminosity | Snow |
|---|---|---|---|---|---|---|---|
| 1778067635 | 15° C | 84% | 1000.3 hPa | 0 mm | - | - | - |
| 1778067335 | 15° C | 84% | 1000.3 hPa | 0 mm | - | - | - |
| 1778067036 | 15° C | 84% | 1000.4 hPa | 0 mm | - | - | - |
| 1778066736 | 15° C | 83% | 1000.4 hPa | 0 mm | - | - | - |
| 1778066436 | 15° C | 83% | 1000.5 hPa | 0 mm | - | - | - |
| 1778066135 | 15° C | 83% | 1000.4 hPa | 0 mm | - | - | - |
| 1778065836 | 15° C | 83% | 1000.4 hPa | 0 mm | - | - | - |
| 1778065536 | 15.56° C | 84% | 1000.5 hPa | 0 mm | - | - | - |
| 1778065235 | 15.56° C | 84% | 1000.5 hPa | 0 mm | - | - | - |
| 1778064935 | 15.56° C | 84% | 1000.5 hPa | 0 mm | - | - | - |
| 1778063736 | 15.56° C | 84% | 1000.6 hPa | 0 mm | - | - | - |
| 1778062535 | 15° C | 84% | 1000.7 hPa | 2.03 mm | - | - | - |
| 1778061937 | 15° C | 83% | 1000.9 hPa | 2.03 mm | - | - | - |
| 1778061335 | 15° C | 83% | 1001.1 hPa | 2.54 mm | - | - | - |
| 1778061039 | 15.56° C | 83% | 1001.1 hPa | 2.54 mm | - | - | - |
| 1778060135 | 15.56° C | 83% | 1001.1 hPa | 3.05 mm | - | - | - |
| 1778059836 | 15.56° C | 84% | 1001.1 hPa | 3.05 mm | - | - | - |
| 1778059235 | 15.56° C | 84% | 1001 hPa | 1.52 mm | - | - | - |
| 1778056537 | 15.56° C | 83% | 1000.7 hPa | 0 mm | - | - | - |
| 1778054739 | 16.11° C | 83% | 1000.4 hPa | 0 mm | - | - | - |
| 1778053837 | 16.11° C | 84% | 1000.4 hPa | 0 mm | - | - | - |
| 1778053537 | 16.11° C | 85% | 1000.2 hPa | 0 mm | - | - | - |
| 1778052936 | 15.56° C | 86% | 1000.4 hPa | 0 mm | - | - | - |
| 1778052339 | 14.44° C | 86% | 1000.3 hPa | 0 mm | - | - | - |
| 1778052037 | 13.89° C | 86% | 1000.4 hPa | 0 mm | - | - | - |
* Rain latest hour (hover to see other rain measurements)
** Current wind speed in m/s (hover to see current wind gust speed)